Retour au catalogue

STARLINK-37259

ActifCommunicationsVLEO
NORAD 68972·PAYLOAD·🇺🇸 United States

Lancé May 1, 2026 depuis Cape Canaveral Space Force Station

Loading…

Prochains Passages (prochaines 24 heures)

TLE

FraisSource: CelesTrak SupGP

Époque: Sep 14, 2026, 23:36 UTC

1 68972C 26099X   26257.98381944  .00032325  00000+0  95536-3 0  2578
2 68972  53.1565 101.3670 0000985  87.0039 162.9804 15.34364876    14

Suivez STARLINK-37259 en temps réel avec AllMySat

Download on the App Store